Location: Gradaro
(45.0833°N, 10.8833°E)
Time: 20:54:09
(UTC+00:00)

NOSS 3-4 (C) - Visible Passes

Search period start: 13 April 2021 00:00
Search period end: 23 April 2021 00:00
Orbit: 873 x 1339 km, 63.4° (Epoch: 13 April)

Date Brightness Start Highest point End Pass type
(mag) Time Alt. Az. Time Alt. Az. Time Alt. Az.
13 Apr 6.2 00:24:33 10° NNW 00:28:32 16° N 00:32:46 10° NE visible
13 Apr 5.5 02:15:35 10° NNW 02:21:41 33° NE 02:28:22 10° E visible
13 Apr 3.4 19:51:42 10° SW 19:57:32 81° NW 20:03:50 10° NE visible
13 Apr 5.6 21:44:39 10° W 21:49:27 24° NNW 21:54:35 10° NNE visible
13 Apr 6.2 23:39:13 10° NW 23:42:56 16° N 23:46:50 10° NE visible
14 Apr 5.8 01:30:53 10° NNW 01:36:24 26° NNE 01:42:23 10° E visible
14 Apr 4.1 03:21:24 10° NW 03:28:24 76° NE 03:36:13 10° SE visible
14 Apr 3.3 19:07:03 10° SSW 19:12:48 66° ESE 19:18:56 10° NE visible
14 Apr 5.2 20:58:55 10° W 21:04:10 31° NW 21:09:49 10° NNE visible
14 Apr 6.2 22:53:35 10° NW 22:57:20 16° N 23:01:16 10° NNE visible
15 Apr 6.0 00:46:06 10° NNW 00:50:59 21° NNE 00:56:14 10° ENE visible
15 Apr 4.6 02:36:41 10° NNW 02:43:27 54° NE 02:50:59 10° ESE visible
15 Apr 3.7 18:22:51 10° S 18:28:13 40° ESE 18:33:53 10° NE visible
15 Apr 4.6 20:13:27 10° WSW 20:19:01 43° NW 20:25:04 10° NNE visible
15 Apr 6.1 22:07:42 10° NW 22:11:45 18° NNW 22:16:03 10° NNE visible
16 Apr 6.2 00:01:11 10° NNW 00:05:29 18° NNE 00:10:02 10° NE visible
16 Apr 5.1 01:51:59 10° NNW 01:58:22 40° NE 02:05:26 10° ESE visible
16 Apr 3.9 03:42:44 10° NW 03:49:41 62° WSW 03:57:24 10° SSE visible
16 Apr 3.9 19:28:15 10° SW 19:34:02 63° NW 19:40:18 10° NE visible
16 Apr 5.8 21:21:46 10° WNW 21:26:17 21° NNW 21:31:05 10° NNE visible
16 Apr 6.3 23:16:02 10° NNW 23:19:53 16° N 23:23:57 10° NE visible
17 Apr 5.6 01:07:18 10° NNW 01:13:10 30° NNE 01:19:35 10° E visible
17 Apr 3.9 02:57:52 10° NW 03:04:55 88° SW 03:12:46 10° SE visible
17 Apr 3.4 18:43:23 10° SW 18:49:13 86° SE 18:55:29 10° NE visible
17 Apr 5.5 20:35:56 10° W 20:40:55 26° NNW 20:46:16 10° NNE visible
17 Apr 6.3 22:30:36 10° NW 22:34:17 16° N 22:38:10 10° NE visible
18 Apr 5.9 00:22:34 10° NNW 00:27:50 24° NNE 00:33:32 10° ENE visible
18 Apr 4.2 02:13:06 10° NW 02:20:01 66° NE 02:27:45 10° SE visible
18 Apr 5.1 19:50:18 10° WSW 19:55:41 35° NW 20:01:30 10° NNE visible
18 Apr 6.2 21:44:51 10° NW 21:48:41 16° N 21:52:44 10° NNE visible
18 Apr 6.1 23:37:45 10° NNW 23:42:23 19° NNE 23:47:20 10° ENE visible
19 Apr 4.8 01:28:23 10° NNW 01:35:01 48° NE 01:42:24 10° ESE visible
19 Apr 4.1 03:19:18 10° NW 03:26:06 49° WSW 03:33:34 10° S visible
19 Apr 4.4 19:04:55 10° WSW 19:10:36 50° NW 19:16:45 10° NNE visible
19 Apr 6.0 20:58:55 10° WNW 21:03:09 19° NNW 21:07:38 10° NNE visible
19 Apr 6.2 22:52:45 10° NNW 22:56:51 17° NNE 23:01:10 10° NE visible
20 Apr 5.2 00:43:43 10° NNW 00:49:54 35° NE 00:56:42 10° E visible
20 Apr 3.8 02:34:21 10° NW 02:41:23 72° WSW 02:49:11 10° SSE visible
20 Apr 5.8 20:13:01 10° WNW 20:17:43 23° NNW 20:22:44 10° NNE visible
20 Apr 6.2 22:07:30 10° NNW 22:11:14 16° N 22:15:11 10° NE visible
20 Apr 5.6 23:59:00 10° NNW 00:04:38 27° NNE 00:10:47 10° E visible
21 Apr 3.9 01:49:32 10° NW 01:56:33 81° NE 02:04:23 10° SE visible
21 Apr 4.8 03:41:20 10° WNW 03:47:00 25° WSW 03:53:04 10° SSW visible
21 Apr 5.4 19:27:14 10° W 19:32:24 29° NNW 19:37:57 10° NNE visible
21 Apr 6.2 21:21:55 10° NW 21:25:38 16° N 21:29:32 10° NNE visible
21 Apr 5.9 23:14:15 10° NNW 23:19:15 22° NNE 23:24:40 10° ENE visible
22 Apr 4.4 01:04:48 10° NNW 01:11:38 58° NE 01:19:14 10° SE visible
22 Apr 4.3 02:55:58 10° NW 03:02:27 38° WSW 03:09:33 10° S visible
22 Apr 4.9 18:41:42 10° WSW 18:47:13 40° NW 18:53:12 10° NNE visible
22 Apr 6.1 20:36:05 10° NW 20:40:03 17° NNW 20:44:15 10° NNE visible
22 Apr 6.1 22:29:22 10° NNW 22:33:46 18° NNE 22:38:27 10° ENE visible
